User: anonymous   Login
Location: Iesi
(43.5167°N, 13.2333°E)
Time: 12:28:12
(UTC+00:00)
Language:

Cosmos 1570 Rocket - Orbit

View from above orbital plane
View from above orbital plane
View from above satellite
View from above satellite

Ground track
Ground track

The orbit data is extracted from the following two-line orbital elements,

1 15032U 84056B   20293.91093228 +.00000044 +00000-0 +24748-4 0  9991
2 15032 074.0727 004.4337 0018055 221.8225 138.1549 14.34808423901998
Epoch (UTC): 19 October 2020 21:51:44
Eccentricity: 0.0018055
inclination: 74.0727°
perigee height: 763 km
apogee height: 788 km
right ascension of ascending node: 4.4337°
argument of perigee: 221.8225°
revolutions per day: 14.34808423
mean anomaly at epoch: 138.1549°
orbit number at epoch: 90199

The dashed part of the orbit path shows where the satellite is in the earth's shadow,  

DLR